contact:dominique.lefevre@mio.osupytheas.fr, maurice.libes@osupytheas.fr, didier.mallarino@osupytheas.fr
Project:EMSO http://www.emso-fr.org/EMSO-France
Depth: 2436.0 m
Title:EMSO Ligure Ouest : Data MII capteur AQUADOPP
Date,Latitude,Longitude,X_East,Y_North,Z_Up,Amplitude_X,Amplitude_Y,Amplitude_Z,Batterie,SoundSpeed,Heading,Pitch,Roll,Pressure,TIS,Speed,Direction
, degrees North, degrees East, m.s-1, m.s-1,m.s-1, 1, 1, 1, Volt, m.s-1, degree, degree, degree, dbar, degree_C, m.s-1, degree
2019-08-06T00:00:41,42.805,6.029,-0.064,0.023,0.023,102.0,107.0,99.0,13.3,1505.3,324.6,-0.8,1.8,2470.21,13.33,0.068,289.8
2019-08-06T00:03:42,42.805,6.029,-0.05,0.015,-0.003,102.0,107.0,99.0,13.3,1505.3,324.4,-0.7,1.8,2470.175,13.33,0.052,286.7
2019-08-06T00:06:43,42.805,6.029,-0.046,0.002,-0.033,102.0,110.0,99.0,13.3,1505.3,327.1,-0.7,1.8,2470.188,13.33,0.046,272.5
2019-08-06T00:09:44,42.805,6.029,-0.063,0.004,0.0,102.0,109.0,99.0,13.4,1505.3,323.4,-0.7,1.8,2470.207,13.33,0.063,273.6
2019-08-06T00:12:45,42.805,6.029,-0.033,0.022,0.0,102.0,109.0,99.0,13.3,1505.3,324.4,-0.7,1.8,2470.161,13.33,0.039,303.7
2019-08-06T00:15:46,42.805,6.029,-0.046,0.033,-0.028,103.0,109.0,99.0,13.3,1505.3,323.5,-0.7,1.8,2470.186,13.33,0.056,305.7
2019-08-06T00:18:47,42.805,6.029,-0.051,0.005,0.0,103.0,108.0,99.0,13.3,1505.3,324.2,-0.7,1.8,2470.161,13.33,0.051,275.6
2019-08-06T00:21:48,42.805,6.029,-0.057,0.021,0.003,103.0,108.0,99.0,13.3,1505.3,323.2,-0.7,1.8,2470.21,13.33,0.06,290.2
2019-08-06T00:24:49,42.805,6.029,-0.006,0.005,-0.019,102.0,109.0,109.0,13.3,1505.3,326.3,-0.7,1.8,2470.168,13.33,0.007,309.8
2019-08-06T00:27:50,42.805,6.029,-0.052,0.035,-0.015,102.0,109.0,100.0,13.4,1505.3,324.8,-0.7,1.9,2470.171,13.33,0.062,303.9
2019-08-06T00:30:51,42.805,6.029,-0.044,0.039,0.003,103.0,109.0,99.0,13.3,1505.3,327.4,-0.7,1.8,2470.151,13.33,0.058,311.6
2019-08-06T00:33:52,42.805,6.029,-0.054,0.023,-0.034,103.0,108.0,100.0,13.4,1505.3,325.2,-0.7,1.8,2470.138,13.33,0.058,293.1
2019-08-06T00:36:53,42.805,6.029,-0.01,0.002,0.005,102.0,107.0,99.0,13.4,1505.3,322.4,-0.7,1.8,2470.199,13.33,0.01,281.3
2019-08-06T00:39:54,42.805,6.029,-0.025,0.039,0.013,102.0,109.0,99.0,13.3,1505.3,323.0,-0.7,1.8,2470.207,13.33,0.046,327.3
2019-08-06T00:42:55,42.805,6.029,-0.072,0.011,-0.024,103.0,108.0,99.0,13.3,1505.3,326.3,-0.7,1.8,2470.167,13.33,0.072,278.7
2019-08-06T00:45:56,42.805,6.029,-0.051,0.04,-0.025,102.0,108.0,99.0,13.4,1505.3,326.4,-0.7,1.9,2470.172,13.33,0.064,308.1
2019-08-06T00:48:57,42.805,6.029,-0.037,0.028,-0.025,103.0,109.0,99.0,13.3,1505.3,325.0,-0.7,1.8,2470.188,13.33,0.046,307.1
2019-08-06T00:51:58,42.805,6.029,-0.039,0.02,0.014,102.0,107.0,100.0,13.4,1505.3,325.5,-0.7,1.9,2470.158,13.33,0.043,297.1
2019-08-06T00:54:59,42.805,6.029,-0.042,0.008,-0.018,103.0,109.0,101.0,13.3,1505.3,326.1,-0.7,1.8,2470.153,13.33,0.042,280.8
2019-08-06T00:58:00,42.805,6.029,-0.051,0.019,-0.012,102.0,107.0,100.0,13.3,1505.3,323.6,-0.7,1.8,2470.163,13.33,0.054,290.4
2019-08-06T01:01:01,42.805,6.029,-0.024,0.003,-0.024,103.0,108.0,99.0,13.4,1505.3,323.2,-0.7,1.9,2470.217,13.33,0.024,277.1
2019-08-06T01:04:02,42.805,6.029,-0.06,0.04,-0.019,101.0,108.0,99.0,13.4,1505.3,328.4,-0.7,1.9,2470.135,13.33,0.072,303.7
2019-08-06T01:07:03,42.805,6.029,-0.049,0.022,-0.016,103.0,108.0,100.0,13.3,1505.3,324.5,-0.7,1.8,2470.114,13.33,0.053,294.2
2019-08-06T01:10:04,42.805,6.029,-0.023,0.029,0.025,103.0,107.0,99.0,13.4,1505.3,323.0,-0.7,1.8,2470.141,13.33,0.037,321.6
2019-08-06T01:13:05,42.805,6.029,-0.04,0.032,-0.032,103.0,108.0,99.0,13.4,1505.3,323.0,-0.7,1.8,2470.149,13.33,0.051,308.7
2019-08-06T01:16:06,42.805,6.029,-0.019,0.017,-0.04,103.0,108.0,99.0,13.4,1505.3,326.4,-0.7,1.8,2470.132,13.33,0.025,311.8
2019-08-06T01:19:07,42.805,6.029,-0.03,0.007,-0.019,102.0,108.0,100.0,13.4,1505.3,322.9,-0.7,1.8,2470.162,13.33,0.03,283.1
2019-08-06T01:22:08,42.805,6.029,-0.027,0.026,-0.013,102.0,109.0,99.0,13.4,1505.3,325.0,-0.7,1.8,2470.139,13.33,0.037,313.9
2019-08-06T01:25:09,42.805,6.029,-0.069,0.022,-0.03,102.0,109.0,101.0,13.4,1505.3,326.9,-0.7,1.8,2470.208,13.33,0.072,287.7
2019-08-06T01:28:10,42.805,6.029,-0.022,0.028,0.001,104.0,107.0,99.0,13.3,1505.3,325.9,-0.7,1.9,2470.186,13.33,0.035,321.8
2019-08-06T01:31:11,42.805,6.029,-0.039,0.04,-0.021,104.0,108.0,98.0,13.4,1505.3,326.8,-0.7,1.8,2470.164,13.33,0.055,315.7
2019-08-06T01:34:12,42.805,6.029,-0.003,0.017,0.006,102.0,107.0,99.0,13.3,1505.3,323.0,-0.7,1.8,2470.164,13.33,0.017,350.0
2019-08-06T01:37:13,42.805,6.029,-0.06,0.002,-0.001,104.0,106.0,99.0,13.4,1505.3,325.2,-0.7,1.9,2470.088,13.33,0.06,271.9
2019-08-06T01:40:14,42.805,6.029,-0.031,0.014,-0.027,102.0,108.0,99.0,13.4,1505.3,324.7,-0.7,1.8,2470.095,13.33,0.034,294.3
2019-08-06T01:43:15,42.805,6.029,-0.036,0.026,0.003,102.0,108.0,99.0,13.4,1505.3,328.4,-0.7,1.8,2470.112,13.33,0.044,305.8
2019-08-06T01:46:16,42.805,6.029,-0.027,0.0,-0.019,102.0,109.0,99.0,13.3,1505.3,326.5,-0.7,1.8,2470.125,13.33,0.026,270.0
2019-08-06T01:49:17,42.805,6.029,-0.042,0.02,-0.009,101.0,108.0,100.0,13.3,1505.3,326.9,-0.7,1.8,2470.14,13.33,0.046,295.5
2019-08-06T01:52:18,42.805,6.029,-0.028,0.012,-0.031,102.0,108.0,100.0,13.4,1505.3,324.1,-0.7,1.8,2470.137,13.33,0.03,293.2
2019-08-06T01:55:19,42.805,6.029,-0.044,-0.006,-0.039,103.0,106.0,99.0,13.3,1505.3,323.4,-0.7,1.8,2470.121,13.33,0.044,262.2
2019-08-06T01:58:20,42.805,6.029,-0.05,0.017,-0.032,104.0,108.0,99.0,13.4,1505.3,327.4,-0.7,1.8,2470.157,13.33,0.052,288.8
2019-08-06T02:01:21,42.805,6.029,-0.047,0.012,-0.022,103.0,105.0,98.0,13.4,1505.3,325.3,-0.7,1.8,2470.118,13.33,0.048,284.3
2019-08-06T02:04:22,42.805,6.029,-0.048,0.004,0.004,103.0,105.0,99.0,13.4,1505.3,326.6,-0.6,1.9,2470.13,13.33,0.048,274.8
2019-08-06T02:07:23,42.805,6.029,-0.063,0.013,-0.035,102.0,107.0,99.0,13.4,1505.3,322.9,-0.7,1.8,2470.132,13.33,0.064,281.7
2019-08-06T02:10:24,42.805,6.029,-0.035,0.002,-0.017,102.0,107.0,99.0,13.4,1505.3,325.5,-0.7,1.9,2470.084,13.33,0.035,273.3
2019-08-06T02:13:25,42.805,6.029,-0.025,0.017,0.001,101.0,108.0,100.0,13.3,1505.3,324.6,-0.7,1.8,2470.158,13.33,0.03,304.2
2019-08-06T02:16:26,42.805,6.029,-0.047,0.013,0.003,103.0,108.0,99.0,13.4,1505.3,327.6,-0.7,1.8,2470.152,13.33,0.048,285.5
2019-08-06T02:19:27,42.805,6.029,-0.05,0.027,0.038,102.0,107.0,98.0,13.4,1505.3,323.6,-0.7,1.9,2470.153,13.33,0.056,298.4
2019-08-06T02:22:28,42.805,6.029,-0.053,0.043,-0.034,100.0,106.0,98.0,13.3,1505.3,327.9,-0.7,1.8,2470.11,13.33,0.068,309.1
2019-08-06T02:25:29,42.805,6.029,-0.07,0.022,-0.015,104.0,107.0,97.0,13.4,1505.3,324.5,-0.7,1.8,2470.12,13.33,0.073,287.4
2019-08-06T02:28:30,42.805,6.029,-0.049,0.026,-0.027,101.0,107.0,97.0,13.4,1505.3,324.4,-0.7,1.8,2470.114,13.33,0.055,297.9
2019-08-06T02:31:31,42.805,6.029,-0.026,0.0,-0.005,102.0,107.0,99.0,13.4,1505.3,323.8,-0.7,1.8,2470.115,13.33,0.026,270.0
2019-08-06T02:34:32,42.805,6.029,-0.036,-0.001,-0.012,103.0,107.0,97.0,13.3,1505.3,325.7,-0.7,1.8,2470.106,13.33,0.036,268.4
2019-08-06T02:37:33,42.805,6.029,-0.054,0.021,-0.061,102.0,108.0,99.0,13.3,1505.3,324.8,-0.7,1.8,2470.081,13.33,0.057,291.2
2019-08-06T02:40:34,42.805,6.029,-0.036,0.004,-0.016,101.0,106.0,99.0,13.4,1505.3,326.5,-0.7,1.8,2470.133,13.33,0.036,276.3
2019-08-06T02:43:35,42.805,6.029,-0.01,0.036,0.015,103.0,107.0,98.0,13.4,1505.3,326.8,-0.7,1.8,2470.093,13.33,0.037,344.5
2019-08-06T02:46:36,42.805,6.029,-0.029,0.002,-0.033,102.0,108.0,99.0,13.4,1505.3,322.9,-0.7,1.8,2470.106,13.33,0.029,273.9
2019-08-06T02:49:37,42.805,6.029,-0.058,0.029,-0.024,102.0,108.0,98.0,13.4,1505.3,326.7,-0.7,1.8,2470.129,13.33,0.064,296.6
2019-08-06T02:52:38,42.805,6.029,-0.034,0.015,-0.024,102.0,106.0,98.0,13.4,1505.3,325.6,-0.8,1.8,2470.113,13.33,0.037,293.8
2019-08-06T02:55:39,42.805,6.029,-0.046,0.014,-0.029,99.0,107.0,100.0,13.4,1505.3,324.7,-0.7,1.9,2470.082,13.33,0.048,286.9
2019-08-06T02:58:40,42.805,6.029,-0.038,0.017,-0.021,102.0,106.0,99.0,13.4,1505.3,326.2,-0.7,1.8,2470.094,13.33,0.041,294.1
2019-08-06T03:01:41,42.805,6.029,-0.052,0.03,-0.046,101.0,107.0,100.0,13.3,1505.3,327.2,-0.7,1.8,2470.126,13.33,0.06,300.0
2019-08-06T03:04:42,42.805,6.029,-0.054,0.002,-0.054,103.0,107.0,98.0,13.4,1505.3,327.9,-0.7,1.8,2470.097,13.33,0.054,272.1
2019-08-06T03:07:43,42.805,6.029,-0.021,0.02,0.029,103.0,107.0,100.0,13.4,1505.3,325.3,-0.7,1.8,2470.081,13.33,0.028,313.6
2019-08-06T03:10:44,42.805,6.029,-0.068,0.022,-0.007,103.0,107.0,99.0,13.4,1505.3,325.6,-0.7,1.8,2470.046,13.33,0.071,287.9
2019-08-06T03:13:45,42.805,6.029,-0.074,0.01,-0.033,102.0,107.0,99.0,13.3,1505.3,324.4,-0.8,1.8,2470.116,13.33,0.074,277.7
2019-08-06T03:16:46,42.805,6.029,-0.059,0.021,-0.021,103.0,108.0,100.0,13.4,1505.3,323.4,-0.7,1.8,2470.064,13.33,0.062,289.6
2019-08-06T03:19:47,42.805,6.029,-0.053,0.025,0.007,103.0,109.0,100.0,13.3,1505.3,323.2,-0.7,1.9,2470.108,13.33,0.058,295.3
2019-08-06T03:22:48,42.805,6.029,-0.059,0.026,0.004,102.0,108.0,99.0,13.4,1505.3,327.1,-0.8,1.8,2470.097,13.33,0.064,293.8
2019-08-06T03:25:49,42.805,6.029,-0.034,0.013,0.005,102.0,108.0,100.0,13.4,1505.3,328.2,-0.7,1.8,2470.093,13.33,0.036,290.9
2019-08-06T03:28:50,42.805,6.029,-0.037,0.017,0.001,103.0,107.0,100.0,13.3,1505.3,323.6,-0.7,1.8,2470.088,13.33,0.04,294.7
2019-08-06T03:31:51,42.805,6.029,-0.049,0.037,-0.002,103.0,108.0,99.0,13.4,1505.3,323.3,-0.7,1.8,2470.054,13.33,0.061,307.1
2019-08-06T03:34:52,42.805,6.029,-0.054,0.018,-0.031,103.0,108.0,100.0,13.4,1505.3,323.7,-0.7,1.8,2470.076,13.33,0.056,288.4
2019-08-06T03:37:53,42.805,6.029,-0.065,0.011,-0.002,103.0,107.0,99.0,13.4,1505.3,325.5,-0.7,1.8,2470.047,13.33,0.065,279.6
2019-08-06T03:40:54,42.805,6.029,-0.074,0.023,-0.034,103.0,108.0,99.0,13.4,1505.3,326.1,-0.7,1.8,2470.058,13.33,0.077,287.3
2019-08-06T03:43:55,42.805,6.029,-0.03,0.028,-0.021,102.0,109.0,99.0,13.4,1505.3,326.6,-0.7,1.8,2470.075,13.33,0.041,313.0
2019-08-06T03:46:56,42.805,6.029,-0.034,0.028,0.0,104.0,110.0,99.0,13.3,1505.3,323.7,-0.7,1.8,2470.071,13.33,0.044,309.5
2019-08-06T03:49:57,42.805,6.029,-0.064,0.004,-0.017,105.0,108.0,100.0,13.4,1505.3,325.3,-0.7,1.9,2470.061,13.33,0.064,273.6
2019-08-06T03:52:58,42.805,6.029,-0.056,0.031,-0.028,103.0,108.0,100.0,13.4,1505.3,325.6,-0.7,1.8,2470.1,13.33,0.064,299.0
2019-08-06T03:55:59,42.805,6.029,-0.018,0.023,0.012,105.0,109.0,101.0,13.3,1505.3,324.4,-0.7,1.8,2470.061,13.33,0.029,322.0
2019-08-06T03:59:00,42.805,6.029,-0.028,0.017,-0.014,105.0,108.0,100.0,13.4,1505.3,325.5,-0.7,1.8,2470.04,13.33,0.032,301.3
2019-08-06T04:02:01,42.805,6.029,-0.055,0.0,-0.014,104.0,108.0,100.0,13.3,1505.3,325.4,-0.7,1.8,2470.049,13.33,0.055,270.0
2019-08-06T04:05:02,42.805,6.029,-0.052,0.012,-0.031,104.0,108.0,99.0,13.4,1505.3,327.9,-0.7,1.8,2470.05,13.33,0.053,283.0
2019-08-06T04:08:03,42.805,6.029,-0.072,0.022,-0.005,104.0,111.0,100.0,13.3,1505.3,322.8,-0.7,1.8,2470.013,13.33,0.075,287.0
2019-08-06T04:11:04,42.805,6.029,-0.039,0.004,-0.014,104.0,108.0,100.0,13.3,1505.3,323.8,-0.7,1.8,2470.025,13.33,0.039,275.9
2019-08-06T04:14:05,42.805,6.029,-0.051,0.016,-0.022,105.0,107.0,99.0,13.3,1505.3,325.1,-0.7,1.8,2470.085,13.33,0.053,287.4
2019-08-06T04:17:06,42.805,6.029,-0.046,0.005,-0.024,103.0,108.0,100.0,13.4,1505.3,322.9,-0.7,1.9,2470.035,13.33,0.046,276.2
2019-08-06T04:20:07,42.805,6.029,-0.047,0.027,-0.007,102.0,107.0,100.0,13.4,1505.3,325.6,-0.7,1.8,2470.076,13.33,0.054,299.9
2019-08-06T04:23:08,42.805,6.029,-0.037,0.002,-0.005,104.0,108.0,100.0,13.4,1505.3,326.4,-0.7,1.8,2470.035,13.33,0.037,273.1
2019-08-06T04:26:09,42.805,6.029,-0.052,0.008,-0.056,103.0,108.0,99.0,13.4,1505.3,325.5,-0.7,1.8,2470.054,13.33,0.052,278.7
2019-08-06T04:29:10,42.805,6.029,-0.06,0.032,-0.022,103.0,108.0,100.0,13.4,1505.3,325.1,-0.7,1.8,2470.037,13.33,0.067,298.1
2019-08-06T04:32:11,42.805,6.029,-0.052,0.021,-0.015,103.0,107.0,99.0,13.3,1505.3,328.3,-0.7,1.9,2470.061,13.33,0.056,292.0
2019-08-06T04:35:12,42.805,6.029,-0.062,0.046,0.006,105.0,109.0,99.0,13.3,1505.3,325.1,-0.7,1.9,2470.016,13.33,0.077,306.6
2019-08-06T04:38:13,42.805,6.029,-0.038,0.024,0.004,103.0,110.0,100.0,13.3,1505.3,323.8,-0.7,1.8,2470.011,13.33,0.044,302.3
2019-08-06T04:41:14,42.805,6.029,-0.043,0.014,-0.015,103.0,109.0,101.0,13.4,1505.3,325.0,-0.7,1.8,2470.01,13.33,0.045,288.0
2019-08-06T04:44:15,42.805,6.029,-0.026,0.043,0.017,104.0,110.0,101.0,13.3,1505.3,327.3,-0.7,1.8,2470.021,13.33,0.05,328.8
2019-08-06T04:47:16,42.805,6.029,-0.063,0.006,-0.002,105.0,109.0,99.0,13.4,1505.3,326.1,-0.7,1.8,2469.997,13.33,0.063,275.4
2019-08-06T04:50:17,42.805,6.029,-0.041,0.027,-0.019,104.0,108.0,100.0,13.4,1505.3,326.0,-0.7,1.8,2469.982,13.33,0.049,303.4
2019-08-06T04:53:18,42.805,6.029,-0.052,0.01,-0.049,104.0,109.0,102.0,13.4,1505.3,326.7,-0.7,1.8,2470.012,13.33,0.052,280.9
2019-08-06T04:56:19,42.805,6.029,-0.037,-0.004,-0.011,105.0,107.0,99.0,13.4,1505.3,326.3,-0.7,1.8,2470.01,13.33,0.037,263.8
2019-08-06T04:59:20,42.805,6.029,-0.038,0.018,-0.033,104.0,109.0,100.0,13.4,1505.3,328.2,-0.7,1.9,2470.02,13.33,0.042,295.3
2019-08-06T05:02:21,42.805,6.029,-0.056,0.018,-0.026,106.0,109.0,100.0,13.3,1505.3,327.3,-0.7,1.8,2470.026,13.33,0.058,287.8
2019-08-06T05:05:22,42.805,6.029,-0.059,0.031,-0.049,102.0,108.0,101.0,13.3,1505.3,326.3,-0.7,1.8,2469.98,13.33,0.066,297.7
2019-08-06T05:08:23,42.805,6.029,-0.056,0.016,-0.021,103.0,108.0,100.0,13.4,1505.3,326.0,-0.7,1.8,2470.045,13.33,0.058,285.9
2019-08-06T05:11:24,42.805,6.029,-0.043,0.009,-0.018,103.0,107.0,101.0,13.4,1505.3,328.1,-0.7,1.8,2470.01,13.33,0.043,281.8
2019-08-06T05:14:25,42.805,6.029,-0.063,0.011,-0.048,103.0,109.0,100.0,13.4,1505.3,327.8,-0.7,1.8,2470.026,13.33,0.063,279.9
2019-08-06T05:17:26,42.805,6.029,-0.044,0.007,-0.018,102.0,107.0,100.0,13.3,1505.3,325.0,-0.7,1.8,2470.003,13.33,0.044,279.0
2019-08-06T05:20:27,42.805,6.029,-0.043,0.017,-0.005,103.0,107.0,100.0,13.4,1505.3,324.9,-0.7,1.9,2470.002,13.33,0.046,291.6
2019-08-06T05:23:28,42.805,6.029,-0.06,0.032,-0.028,102.0,107.0,100.0,13.4,1505.3,324.2,-0.7,1.8,2470.05,13.33,0.067,298.1
2019-08-06T05:26:29,42.805,6.029,-0.035,0.021,-0.013,103.0,109.0,99.0,13.3,1505.3,325.3,-0.7,1.8,2470.003,13.33,0.04,301.0
2019-08-06T05:29:30,42.805,6.029,-0.022,0.034,-0.004,104.0,109.0,99.0,13.4,1505.3,324.6,-0.7,1.8,2470.013,13.33,0.04,327.1
2019-08-06T05:32:31,42.805,6.029,-0.023,0.015,-0.009,103.0,108.0,99.0,13.3,1505.3,326.8,-0.7,1.8,2469.986,13.33,0.027,303.1
2019-08-06T05:35:32,42.805,6.029,-0.067,0.004,-0.036,103.0,107.0,100.0,13.4,1505.3,324.9,-0.7,1.8,2470.012,13.33,0.067,273.4
2019-08-06T05:38:33,42.805,6.029,-0.058,0.02,-0.003,102.0,107.0,100.0,13.4,1505.3,327.3,-0.7,1.8,2469.969,13.33,0.061,289.0
2019-08-06T05:41:34,42.805,6.029,-0.047,0.027,-0.017,103.0,110.0,100.0,13.4,1505.3,326.3,-0.7,1.8,2469.984,13.33,0.054,299.9
2019-08-06T05:44:35,42.805,6.029,-0.041,0.017,0.0,103.0,109.0,99.0,13.3,1505.3,324.8,-0.7,1.8,2469.976,13.33,0.044,292.5
2019-08-06T05:47:36,42.805,6.029,-0.061,0.027,-0.055,103.0,110.0,99.0,13.4,1505.3,324.7,-0.7,1.8,2469.981,13.33,0.066,293.9
2019-08-06T05:50:37,42.805,6.029,-0.071,0.0,-0.021,103.0,107.0,99.0,13.4,1505.3,323.3,-0.7,1.9,2469.996,13.33,0.07,270.0
2019-08-06T05:53:38,42.805,6.029,-0.049,0.027,0.013,103.0,108.0,100.0,13.4,1505.3,325.8,-0.7,1.8,2469.959,13.33,0.055,298.9
2019-08-06T05:56:39,42.805,6.029,-0.026,0.013,-0.007,104.0,109.0,97.0,13.3,1505.3,327.8,-0.7,1.8,2470.028,13.33,0.029,296.6
2019-08-06T05:59:40,42.805,6.029,-0.06,0.025,-0.02,102.0,109.0,100.0,13.3,1505.3,328.3,-0.7,1.8,2469.999,13.33,0.064,292.6
2019-08-06T06:02:41,42.805,6.029,-0.044,0.044,-0.013,103.0,109.0,99.0,13.4,1505.3,326.5,-0.8,1.8,2469.978,13.33,0.062,315.0
2019-08-06T06:05:42,42.805,6.029,-0.044,0.001,-0.034,104.0,108.0,100.0,13.4,1505.3,326.1,-0.7,1.8,2470.005,13.33,0.044,271.3
2019-08-06T06:08:43,42.805,6.029,-0.038,0.022,-0.01,104.0,109.0,101.0,13.4,1505.3,327.6,-0.7,1.8,2470.049,13.33,0.043,300.1
2019-08-06T06:11:44,42.805,6.029,-0.066,0.025,-0.033,103.0,108.0,100.0,13.4,1505.3,324.6,-0.7,1.8,2470.012,13.33,0.07,290.7
2019-08-06T06:14:45,42.805,6.029,-0.073,-0.002,-0.031,103.0,108.0,99.0,13.4,1505.3,325.7,-0.7,1.9,2469.983,13.33,0.073,268.4
2019-08-06T06:17:46,42.805,6.029,-0.054,0.031,-0.047,104.0,107.0,101.0,13.4,1505.3,324.5,-0.7,1.8,2470.018,13.33,0.062,299.9
2019-08-06T06:20:47,42.805,6.029,-0.045,0.016,-0.026,102.0,106.0,100.0,13.4,1505.3,325.6,-0.7,1.8,2469.963,13.33,0.047,289.6
2019-08-06T06:23:48,42.805,6.029,-0.069,0.02,-0.03,101.0,107.0,99.0,13.3,1505.3,325.5,-0.7,1.8,2469.985,13.33,0.071,286.2
2019-08-06T06:26:49,42.805,6.029,-0.051,0.011,0.021,103.0,108.0,100.0,13.3,1505.3,325.0,-0.7,1.8,2469.984,13.33,0.052,282.2
2019-08-06T06:29:50,42.805,6.029,-0.052,0.022,-0.032,102.0,108.0,100.0,13.4,1505.3,324.3,-0.7,1.8,2469.998,13.33,0.056,292.9
2019-08-06T06:32:51,42.805,6.029,-0.049,0.018,-0.033,102.0,108.0,101.0,13.4,1505.3,325.5,-0.8,1.8,2470.036,13.33,0.052,290.2
2019-08-06T06:35:52,42.805,6.029,-0.054,0.002,-0.034,104.0,106.0,100.0,13.3,1505.3,326.8,-0.7,1.9,2469.967,13.33,0.054,272.1
2019-08-06T06:38:53,42.805,6.029,-0.051,0.021,-0.037,103.0,106.0,98.0,13.3,1505.3,326.2,-0.8,1.8,2469.949,13.33,0.055,292.4
2019-08-06T06:41:54,42.805,6.029,-0.058,0.034,-0.049,104.0,109.0,100.0,13.4,1505.3,324.7,-0.7,1.8,2470.017,13.33,0.067,300.4
2019-08-06T06:44:55,42.805,6.029,-0.045,0.021,-0.018,103.0,110.0,99.0,13.4,1505.3,325.7,-0.7,1.9,2470.014,13.33,0.049,295.0
2019-08-06T06:47:56,42.805,6.029,-0.047,0.01,-0.017,103.0,108.0,99.0,13.3,1505.3,322.9,-0.7,1.8,2470.0,13.33,0.048,282.0
2019-08-06T06:50:57,42.805,6.029,-0.039,0.046,-0.03,102.0,109.0,99.0,13.4,1505.3,324.2,-0.7,1.8,2469.994,13.33,0.06,319.7
2019-08-06T06:53:58,42.805,6.029,-0.016,0.024,-0.024,103.0,109.0,99.0,13.4,1505.3,323.3,-0.7,1.8,2469.994,13.33,0.028,326.3
2019-08-06T06:56:59,42.805,6.029,-0.053,0.01,-0.018,102.0,109.0,99.0,13.4,1505.3,326.0,-0.7,1.8,2470.011,13.33,0.053,280.7
2019-08-06T07:00:00,42.805,6.029,-0.046,0.023,-0.028,102.0,108.0,99.0,13.4,1505.3,324.8,-0.7,1.9,2470.007,13.33,0.051,296.6
2019-08-06T07:03:01,42.805,6.029,-0.036,0.028,0.005,102.0,109.0,99.0,13.4,1505.3,327.4,-0.7,1.9,2470.025,13.33,0.045,307.9
2019-08-06T07:06:02,42.805,6.029,-0.053,0.03,-0.024,103.0,107.0,100.0,13.3,1505.3,326.2,-0.7,1.9,2470.014,13.33,0.06,299.5
2019-08-06T07:09:03,42.805,6.029,-0.057,0.011,-0.03,103.0,108.0,99.0,13.3,1505.3,323.3,-0.7,1.8,2469.969,13.33,0.058,280.9
2019-08-06T07:12:04,42.805,6.029,-0.043,0.007,-0.043,103.0,109.0,99.0,13.4,1505.3,327.8,-0.8,1.9,2470.079,13.33,0.043,279.2
2019-08-06T07:15:05,42.805,6.029,-0.039,0.021,-0.01,103.0,107.0,100.0,13.3,1505.3,324.3,-0.7,1.9,2469.987,13.33,0.044,298.3
2019-08-06T07:18:06,42.805,6.029,-0.032,0.023,-0.012,103.0,108.0,100.0,13.4,1505.3,326.0,-0.7,1.8,2470.009,13.33,0.039,305.7
2019-08-06T07:21:07,42.805,6.029,-0.05,0.01,0.001,104.0,107.0,100.0,13.4,1505.3,327.6,-0.7,1.8,2470.051,13.33,0.05,281.3
2019-08-06T07:24:08,42.805,6.029,-0.038,0.038,0.0,103.0,108.0,99.0,13.3,1505.3,325.1,-0.7,1.8,2470.021,13.33,0.053,315.0
2019-08-06T07:27:09,42.805,6.029,-0.051,0.023,-0.033,103.0,108.0,99.0,13.3,1505.3,324.6,-0.7,1.8,2470.019,13.33,0.055,294.3
2019-08-06T07:30:10,42.805,6.029,-0.059,0.008,-0.015,102.0,108.0,99.0,13.4,1505.3,324.9,-0.7,1.8,2470.047,13.33,0.059,277.7
2019-08-06T07:33:11,42.805,6.029,-0.038,0.027,-0.035,102.0,108.0,100.0,13.4,1505.3,328.3,-0.7,1.9,2470.001,13.33,0.046,305.4
2019-08-06T07:36:12,42.805,6.029,-0.045,0.031,-0.029,103.0,108.0,99.0,13.3,1505.3,323.6,-0.7,1.8,2470.037,13.33,0.054,304.6
2019-08-06T07:39:13,42.805,6.029,-0.055,0.02,0.007,103.0,108.0,98.0,13.4,1505.3,324.7,-0.7,1.9,2470.051,13.33,0.058,290.0
2019-08-06T07:42:14,42.805,6.029,-0.056,0.019,-0.024,103.0,108.0,98.0,13.4,1505.3,326.2,-0.7,1.8,2470.041,13.33,0.059,288.7
2019-08-06T07:45:15,42.805,6.029,-0.067,0.019,-0.012,103.0,108.0,99.0,13.3,1505.3,327.4,-0.7,1.8,2470.045,13.33,0.069,285.8
2019-08-06T07:48:16,42.805,6.029,-0.054,0.024,-0.036,104.0,108.0,99.0,13.4,1505.3,325.3,-0.7,1.8,2470.025,13.33,0.059,294.0
2019-08-06T07:51:17,42.805,6.029,-0.082,0.032,-0.052,102.0,108.0,99.0,13.3,1505.3,326.8,-0.7,1.8,2470.051,13.33,0.088,291.3
2019-08-06T07:54:18,42.805,6.029,-0.062,0.017,-0.037,103.0,108.0,100.0,13.3,1505.3,325.2,-0.7,1.8,2470.034,13.33,0.064,285.3
2019-08-06T07:57:19,42.805,6.029,-0.067,0.013,-0.011,103.0,106.0,101.0,13.4,1505.3,323.4,-0.7,1.8,2470.059,13.33,0.068,281.0
2019-08-06T08:00:20,42.805,6.029,-0.053,0.042,-0.025,102.0,109.0,99.0,13.3,1505.3,325.0,-0.7,1.8,2470.083,13.33,0.067,308.4
2019-08-06T08:03:21,42.805,6.029,-0.052,-0.002,-0.016,102.0,107.0,100.0,13.4,1505.3,324.3,-0.7,1.8,2469.998,13.33,0.052,267.8
2019-08-06T08:06:22,42.805,6.029,-0.042,0.033,-0.02,104.0,107.0,99.0,13.3,1505.3,326.0,-0.7,1.8,2470.048,13.33,0.053,308.2
2019-08-06T08:09:23,42.805,6.029,-0.037,0.026,-0.021,103.0,108.0,99.0,13.4,1505.3,326.6,-0.7,1.8,2470.073,13.33,0.045,305.1
2019-08-06T08:12:24,42.805,6.029,-0.078,0.013,-0.015,104.0,107.0,100.0,13.3,1505.3,326.3,-0.7,1.8,2470.042,13.33,0.079,279.5
2019-08-06T08:15:25,42.805,6.029,-0.063,0.02,-0.047,102.0,108.0,100.0,13.4,1505.3,323.8,-0.7,1.8,2470.082,13.33,0.066,287.6
2019-08-06T08:18:26,42.805,6.029,-0.048,0.015,-0.001,103.0,108.0,99.0,13.4,1505.3,324.9,-0.7,1.8,2470.027,13.33,0.05,287.4
2019-08-06T08:21:27,42.805,6.029,-0.023,0.014,-0.031,103.0,108.0,100.0,13.4,1505.3,323.2,-0.7,1.8,2470.112,13.33,0.026,301.3
2019-08-06T08:24:28,42.805,6.029,-0.043,0.005,-0.008,103.0,107.0,100.0,13.4,1505.3,324.0,-0.7,1.8,2469.992,13.33,0.043,276.6
2019-08-06T08:27:29,42.805,6.029,-0.048,0.022,0.001,102.0,108.0,98.0,13.4,1505.3,325.7,-0.7,1.8,2470.061,13.33,0.052,294.6
2019-08-06T08:30:30,42.805,6.029,-0.047,0.011,-0.019,103.0,108.0,100.0,13.4,1505.3,326.3,-0.7,1.9,2470.093,13.33,0.048,283.2
2019-08-06T08:33:31,42.805,6.029,-0.041,0.0,-0.019,103.0,108.0,101.0,13.3,1505.3,327.6,-0.7,1.8,2470.04,13.33,0.041,270.0
2019-08-06T08:36:32,42.805,6.029,-0.016,0.019,-0.012,104.0,107.0,99.0,13.4,1505.3,324.3,-0.7,1.8,2470.057,13.33,0.024,319.9
2019-08-06T08:39:33,42.805,6.029,-0.056,0.029,0.029,102.0,108.0,99.0,13.3,1505.3,324.6,-0.7,1.8,2470.08,13.33,0.063,297.4
2019-08-06T08:42:34,42.805,6.029,-0.05,0.027,-0.041,103.0,108.0,99.0,13.3,1505.3,324.1,-0.7,1.8,2470.072,13.33,0.056,298.4
2019-08-06T08:45:35,42.805,6.029,-0.048,0.039,-0.013,103.0,108.0,99.0,13.4,1505.3,326.9,-0.7,1.8,2470.044,13.33,0.061,309.1
2019-08-06T08:48:36,42.805,6.029,-0.054,0.009,-0.022,102.0,108.0,99.0,13.3,1505.3,324.0,-0.8,1.8,2470.064,13.33,0.054,279.5
2019-08-06T08:51:37,42.805,6.029,-0.055,0.024,-0.046,103.0,109.0,98.0,13.4,1505.3,323.5,-0.7,1.8,2470.106,13.33,0.06,293.6
2019-08-06T08:54:38,42.805,6.029,-0.059,0.024,-0.009,102.0,108.0,100.0,13.4,1505.3,326.8,-0.7,1.8,2470.081,13.33,0.063,292.1
2019-08-06T08:57:39,42.805,6.029,-0.068,0.02,-0.037,103.0,107.0,98.0,13.3,1505.3,325.0,-0.7,1.9,2470.075,13.33,0.07,286.4
2019-08-06T09:00:40,42.805,6.029,-0.032,0.034,-0.015,103.0,109.0,98.0,13.4,1505.3,328.2,-0.7,1.9,2470.119,13.33,0.046,316.7
2019-08-06T09:03:41,42.805,6.029,-0.025,-0.001,-0.029,104.0,109.0,98.0,13.3,1505.3,326.2,-0.7,1.8,2470.101,13.33,0.025,267.7
2019-08-06T09:06:42,42.805,6.029,-0.04,0.007,-0.016,102.0,107.0,99.0,13.3,1505.3,324.8,-0.7,1.9,2470.101,13.33,0.04,279.9
2019-08-06T09:09:43,42.805,6.029,-0.011,0.014,0.024,103.0,107.0,101.0,13.4,1505.3,325.1,-0.7,1.9,2470.071,13.33,0.017,321.8
2019-08-06T09:12:44,42.805,6.029,-0.05,0.013,-0.045,103.0,107.0,100.0,13.4,1505.3,324.9,-0.7,1.8,2470.123,13.33,0.051,284.6
2019-08-06T09:15:45,42.805,6.029,-0.048,0.004,-0.029,103.0,107.0,99.0,13.3,1505.3,326.5,-0.7,1.8,2470.095,13.33,0.048,274.8
2019-08-06T09:18:46,42.805,6.029,-0.045,0.013,-0.032,103.0,107.0,100.0,13.4,1505.3,326.2,-0.7,1.9,2470.084,13.33,0.046,286.1
2019-08-06T09:21:47,42.805,6.029,-0.031,0.022,-0.031,103.0,107.0,99.0,13.3,1505.3,324.3,-0.7,1.9,2470.09,13.33,0.038,305.4
2019-08-06T09:24:48,42.805,6.029,-0.037,0.008,0.019,102.0,108.0,99.0,13.3,1505.3,324.2,-0.7,1.8,2470.089,13.33,0.037,282.2
2019-08-06T09:27:49,42.805,6.029,-0.042,0.023,-0.038,104.0,107.0,99.0,13.4,1505.3,325.5,-0.7,1.8,2470.127,13.33,0.047,298.7
2019-08-06T09:30:50,42.805,6.029,-0.03,0.017,-0.024,102.0,108.0,99.0,13.3,1505.3,325.1,-0.7,1.8,2470.116,13.33,0.034,299.5